Theta_e
335 334 330 328 329 329 330 331 331 331 331 330 328 326 327 329 331 333 333 333 332 331 332 332 331 331 330 331 331 330 327 324 324 324 324 322 322 321 322 323 324 324 325 329 331 329 331 332 331 331 333 335 335 334 334 333 332 331 329 327 326 326
333 332 328 329 329 328 329 329 331 331 329 328 325 325 328 330 331 332 332 331 331 332 333 332 330 329 330 330 329 328 326 325 326 326 324 323 323 323 322 322 324 324 323 327 330 329 330 332 331 331 332 334 334 334 333 332 332 330 328 326 326 327
334 331 328 329 328 328 328 329 332 331 327 326 325 327 329 331 331 330 329 330 333 335 334 331 330 331 330 328 327 328 327 327 327 326 325 325 324 323 323 322 324 324 323 326 329 328 330 332 331 331 331 332 335 335 332 332 332 329 327 326 326 327
335 332 330 330 328 329 330 332 333 329 326 326 327 329 330 330 329 328 330 333 336 337 333 332 335 335 331 327 326 327 327 326 326 326 326 327 327 326 325 325 325 324 323 326 329 329 331 331 331 331 330 332 335 333 331 332 332 329 326 324 325 327
335 333 331 330 329 331 332 333 332 327 326 327 327 330 331 329 327 330 333 334 337 336 333 333 336 335 332 328 326 326 326 326 327 328 328 330 332 330 329 329 329 327 327 328 330 331 332 332 332 331 330 333 334 331 332 331 331 328 323 321 325 327
335 334 333 332 331 333 335 335 331 327 327 327 329 331 332 330 329 333 335 335 335 336 333 333 333 333 332 329 326 325 326 327 330 332 331 331 333 332 331 332 331 330 329 331 331 331 332 332 332 331 331 333 334 331 332 331 331 328 321 321 326 329
336 334 335 335 334 336 337 336 332 328 328 330 332 332 333 332 332 334 336 335 334 335 333 333 333 333 332 330 328 327 328 328 331 333 332 330 332 332 332 332 332 331 330 330 330 329 331 332 332 331 331 332 332 332 331 331 329 324 319 322 327 329
336 335 338 337 335 337 337 335 334 331 331 333 333 333 333 332 333 334 335 335 334 334 334 333 333 333 332 332 331 330 330 330 331 333 332 331 331 331 330 331 331 331 331 330 329 329 330 331 331 331 330 330 331 331 331 330 325 319 317 323 328 329
337 336 338 337 336 338 337 337 335 333 335 335 335 335 333 333 333 332 333 334 334 333 334 333 333 333 333 333 332 332 331 331 332 332 332 331 330 330 330 329 329 329 329 328 328 328 330 330 331 330 330 331 331 331 332 330 326 320 318 323 329 330
338 338 338 337 337 338 337 337 336 335 337 336 336 335 334 333 333 333 333 334 333 333 334 334 334 333 333 333 332 333 332 332 333 334 333 331 330 330 329 329 329 328 327 328 329 328 329 330 331 330 330 330 330 331 331 331 329 323 319 323 328 329
338 339 339 338 339 338 337 337 336 337 337 336 335 334 333 334 334 334 333 333 334 333 334 334 333 332 332 333 332 332 333 334 335 335 334 331 330 329 329 330 329 328 327 329 330 329 328 329 330 330 329 329 329 331 331 331 331 325 321 324 326 327
339 339 338 339 339 338 336 336 336 337 338 336 335 334 334 335 335 335 334 334 334 334 334 333 333 333 332 333 332 331 333 334 335 335 334 332 331 328 328 328 327 328 329 329 329 329 328 329 329 330 329 328 328 330 331 332 331 326 322 324 324 325
339 339 338 338 338 338 337 336 336 337 338 337 336 335 335 336 335 335 334 334 335 334 334 333 334 334 333 332 332 332 332 333 335 335 334 333 332 329 327 327 327 329 330 330 330 329 328 328 329 329 330 329 329 330 330 332 331 326 325 325 324 324
339 339 339 338 338 338 337 337 337 337 338 337 336 337 337 335 335 334 335 334 334 334 334 333 334 333 332 332 332 332 332 333 335 335 334 333 331 329 327 326 329 329 329 329 329 328 328 328 329 330 330 329 329 331 331 331 330 328 328 328 326 326
338 337 338 338 339 338 338 337 338 338 338 338 338 337 336 334 334 334 334 333 333 334 334 334 334 333 332 332 333 332 332 333 334 334 333 331 330 329 327 327 330 330 328 328 327 327 328 329 329 330 330 330 330 331 331 330 329 329 330 330 329 329
337 337 338 338 339 339 339 338 338 338 338 338 337 335 334 334 334 335 334 334 334 333 334 335 334 334 333 332 333 332 331 333 333 334 333 332 330 329 327 328 330 330 329 327 327 327 328 329 330 330 330 330 331 330 330 328 328 330 330 330 331 330
335 336 338 338 339 339 338 337 337 336 335 335 334 334 333 333 334 335 335 334 334 334 333 335 335 334 334 333 333 332 332 333 333 334 333 333 332 329 327 329 330 331 330 328 327 327 328 330 330 330 329 329 330 330 330 328 328 328 328 330 331 331
335 336 338 339 339 338 338 336 334 333 333 332 332 333 332 332 333 334 334 334 333 334 334 334 335 334 334 333 333 333 333 333 333 333 333 334 333 330 327 328 329 330 331 329 328 327 328 330 329 330 330 330 330 330 331 330 328 328 327 329 330 330
335 337 339 339 339 337 335 333 332 332 331 332 332 332 332 331 332 332 333 333 333 333 334 333 334 334 334 333 332 332 332 332 333 333 333 334 334 330 327 328 328 329 330 329 329 328 328 329 329 330 330 331 330 330 331 330 328 328 327 327 329 329
335 337 337 337 336 335 333 332 332 332 331 331 332 331 332 332 332 332 333 333 334 333 333 334 334 334 334 333 333 332 332 332 332 332 333 334 334 330 328 329 328 329 330 329 328 328 328 329 329 330 330 330 331 331 330 328 327 328 327 326 327 328
335 335 334 333 332 332 332 332 333 332 332 332 332 332 332 332 333 333 333 334 334 333 333 334 334 334 334 333 333 332 331 332 332 332 333 334 333 331 329 329 330 330 329 328 328 328 328 329 329 329 330 329 330 330 329 328 327 327 327 327 326 327
334 333 333 332 332 333 333 333 333 333 333 333 332 331 331 330 331 333 333 334 333 333 333 334 334 334 333 333 333 333 332 332 332 332 332 333 332 330 329 329 329 330 329 328 328 329 329 329 329 329 329 330 330 330 329 327 327 326 327 327 326 326
335 333 332 331 331 332 332 332 332 331 331 330 329 328 327 326 328 331 333 333 333 333 333 334 334 334 333 333 333 332 332 332 332 332 332 332 332 330 329 329 328 329 329 328 329 329 329 329 330 330 330 331 331 330 329 328 327 327 326 325 325 326
333 330 328 329 329 329 330 331 330 329 328 328 327 327 327 328 329 330 331 332 332 332 332 333 333 334 333 333 332 332 332 332 331 332 331 332 332 330 329 329 328 328 328 329 328 328 329 329 330 329 329 331 330 330 332 329 326 326 326 324 324 325
329 328 328 328 328 329 330 329 327 326 327 326 327 328 329 331 331 329 330 331 330 330 331 332 333 332 332 332 332 332 332 332 331 330 331 331 330 329 330 329 328 327 328 329 328 328 329 329 330 329 329 330 329 332 333 330 327 325 324 323 322 322
327 328 327 327 328 329 329 327 325 325 326 326 328 328 329 330 329 329 330 330 329 329 330 330 330 331 331 331 331 331 331 332 330 329 330 330 329 330 330 329 328 328 327 328 327 328 328 328 329 329 329 329 330 331 330 328 330 326 321 320 320 321
327 327 326 326 328 328 326 324 324 325 327 328 327 325 325 327 329 328 327 328 328 328 328 327 328 328 328 328 329 328 329 330 330 329 329 329 329 329 329 329 330 329 329 328 326 327 328 327 328 328 329 329 329 329 326 327 329 326 322 321 318 319
327 327 326 326 327 328 325 323 324 326 328 328 326 325 325 326 326 324 323 326 326 325 326 327 327 327 327 326 326 327 327 327 328 328 328 327 328 328 329 329 330 329 328 329 327 326 328 328 328 328 329 330 329 328 326 326 325 323 323 322 319 318
329 328 327 327 328 328 326 325 326 328 328 327 325 325 325 324 323 323 322 325 326 325 325 326 325 325 324 324 325 326 327 326 326 326 327 327 327 328 328 329 329 328 327 327 327 327 328 328 328 328 328 329 328 328 327 325 323 321 321 322 320 319
332 331 330 330 331 331 329 329 329 328 327 326 325 324 324 324 323 323 323 323 324 324 325 325 324 325 325 324 324 325 326 325 326 326 326 328 328 327 328 328 328 328 327 326 326 328 328 328 328 328 328 329 328 327 326 324 323 322 320 319 319 318
332 332 332 331 332 331 330 330 328 327 326 324 324 324 323 323 322 321 322 322 322 323 325 325 324 325 325 325 325 325 324 324 325 326 326 328 329 329 328 329 328 328 327 327 327 327 327 327 328 328 328 328 328 326 325 324 323 324 320 317 318 318
331 331 331 331 330 330 329 329 326 325 324 323 323 322 322 322 321 321 322 323 323 324 324 324 324 324 324 323 325 325 324 324 325 325 326 327 329 330 329 329 329 328 329 329 328 327 328 327 326 327 327 327 327 326 324 323 323 324 319 315 317 317
331 331 331 330 330 329 327 326 325 324 323 322 322 321 322 322 321 322 323 324 323 324 324 324 324 323 323 324 325 325 324 324 325 324 325 326 328 330 330 329 329 329 330 330 329 327 327 326 325 325 326 325 326 325 324 323 322 322 319 316 316 315
332 332 331 331 330 327 326 325 324 324 323 322 322 322 323 322 321 322 322 322 323 323 324 324 322 322 323 324 324 324 324 324 324 323 324 325 326 328 329 329 329 329 329 329 328 327 326 324 324 324 324 324 323 321 320 320 320 322 320 317 315 314
335 333 331 331 329 326 326 325 324 324 323 322 322 322 323 322 322 322 321 321 321 323 324 323 322 323 324 324 324 324 323 323 324 324 324 324 325 326 328 328 328 328 327 326 325 323 320 318 318 318 318 318 317 316 315 316 317 320 321 318 315 313
336 335 333 331 329 327 326 325 325 325 324 322 322 322 322 321 321 321 321 321 322 323 323 322 323 324 324 324 323 323 323 323 323 323 324 324 323 324 324 325 325 324 323 322 319 316 314 313 313 313 314 314 314 314 314 316 316 317 319 317 314 313
337 336 334 331 330 328 327 326 325 325 325 324 322 322 321 320 320 321 321 323 323 323 323 323 323 323 322 322 322 322 323 323 323 322 323 322 322 321 321 321 322 321 320 319 316 314 313 313 313 313 314 313 313 314 314 315 315 315 316 316 315 315
Wind_Speed
26 26 26 25 23 22 20 19 19 18 17 16 15 15 15 15 14 13 13 13 13 13 14 14 13 12 10 9 8 7 7 7 6 6 5 6 6 6 6 5 3 2 1 3 4 4 5 6 7 9 9 9 13 14 12 15 14 13 13 13 13 13
26 26 26 24 23 22 20 19 18 18 17 17 16 15 16 16 15 15 15 14 13 13 14 14 13 10 9 8 8 7 7 7 6 5 5 5 6 6 6 5 4 3 2 4 5 5 6 6 7 8 9 10 13 13 12 13 13 12 12 13 13 13
26 25 25 24 23 22 20 19 19 18 18 18 17 17 18 17 17 16 16 15 14 13 13 13 11 9 8 8 7 7 7 6 5 4 4 4 5 6 6 6 5 4 4 7 8 7 6 7 6 5 7 6 8 9 11 11 11 11 11 12 12 12
26 25 25 24 23 22 20 20 19 19 19 18 18 18 19 18 18 17 16 16 15 13 13 12 11 9 8 7 7 7 7 6 5 4 3 3 4 5 6 6 6 6 6 8 8 5 4 3 2 3 4 4 6 8 10 9 10 10 10 11 11 12
26 26 25 25 24 22 20 20 19 19 19 18 18 18 18 18 17 16 16 15 14 14 13 12 11 9 8 7 7 7 7 6 5 4 3 2 3 4 5 5 5 6 5 5 3 2 3 5 5 5 5 6 8 9 9 8 9 9 9 11 11 12
26 26 25 25 24 22 20 19 19 19 20 18 17 18 17 17 17 17 16 14 13 12 12 11 10 9 8 7 6 6 6 5 5 4 2 1 2 2 3 3 2 3 3 1 1 5 5 5 6 5 6 7 7 8 9 9 8 8 9 10 12 12
27 27 24 24 23 22 21 20 20 20 20 18 16 16 16 17 17 16 15 13 12 11 11 10 10 10 8 7 5 5 5 4 5 4 2 1 1 2 2 2 1 1 1 2 3 6 2 5 6 4 4 6 8 8 9 9 8 8 9 11 13 13
28 28 24 23 23 22 22 21 21 22 20 17 15 14 15 16 15 14 13 12 12 11 11 11 10 10 8 7 5 4 5 5 4 5 3 2 2 2 2 3 3 2 3 3 4 5 3 7 6 4 4 5 7 9 9 9 9 8 9 11 13 14
28 27 24 24 23 21 22 21 22 23 21 17 16 15 15 14 12 13 13 13 13 12 11 10 10 9 6 6 6 5 4 4 3 4 4 2 2 3 2 3 4 2 1 2 6 5 6 9 7 6 7 7 8 10 10 9 9 8 9 11 12 13
28 27 24 25 23 22 23 23 23 24 21 18 16 16 16 13 12 13 13 12 11 11 11 9 8 7 5 5 6 5 4 4 2 2 2 2 1 1 1 3 4 2 3 4 6 5 7 12 10 7 9 9 8 11 11 10 10 10 10 11 11 10
28 28 25 24 23 24 24 23 22 21 20 19 17 16 15 13 12 12 11 11 11 11 10 8 7 6 5 6 6 6 5 6 3 1 1 2 1 0 1 3 4 4 5 5 5 5 6 11 12 8 8 8 8 10 12 11 10 11 11 11 10 9
27 27 25 25 23 23 23 22 21 19 18 17 16 16 14 13 13 11 11 11 11 10 9 7 7 6 6 7 7 7 6 6 5 1 1 1 1 2 3 5 5 5 4 4 7 7 5 9 14 11 9 10 10 11 12 12 11 13 13 12 11 10
26 25 25 25 22 21 22 22 21 18 17 16 16 15 13 13 11 10 11 10 9 8 8 7 8 8 8 8 8 8 6 6 5 2 1 2 2 3 5 6 6 5 5 6 8 9 7 9 14 13 12 11 12 12 12 14 15 15 14 13 13 12
25 25 25 24 21 22 23 23 20 18 17 17 16 15 12 11 9 10 10 8 8 8 8 9 9 9 9 8 8 7 6 6 6 3 2 3 3 5 6 8 7 6 6 7 7 8 9 11 12 14 16 15 13 12 12 13 15 14 11 11 13 13
26 26 26 23 21 21 22 21 20 18 18 17 17 15 12 10 10 10 10 9 9 9 9 10 10 9 9 9 8 7 6 8 7 5 3 3 5 6 7 9 9 7 6 7 8 9 11 13 12 13 17 16 13 12 10 10 12 12 9 10 11 11
26 26 24 22 20 19 20 22 20 18 17 17 16 14 12 11 10 10 9 9 9 10 11 11 10 8 8 8 8 6 6 7 7 7 4 3 5 6 8 10 9 6 6 6 8 10 12 13 12 13 13 13 12 11 10 10 11 10 9 10 10 9
23 25 24 23 20 19 22 22 20 16 15 15 14 13 11 10 8 7 8 8 8 9 10 11 10 9 8 8 7 7 7 7 8 8 7 5 5 6 8 10 9 6 5 6 8 11 12 11 12 12 13 13 12 11 12 14 14 10 8 9 9 9
23 22 23 24 22 22 22 19 17 15 14 14 13 12 10 9 7 6 6 6 7 8 8 8 9 10 10 9 9 9 8 7 9 9 8 7 6 7 9 9 9 8 5 6 8 10 11 10 10 11 12 13 12 11 12 13 13 8 6 7 8 9
24 19 20 23 22 21 18 17 17 15 14 14 13 11 9 9 8 6 6 6 7 6 6 6 8 9 9 9 10 10 8 8 10 11 10 9 7 8 10 9 10 9 7 7 7 9 10 10 10 9 10 11 12 11 8 10 11 6 5 7 6 8
24 19 19 19 19 20 19 18 18 17 16 16 15 12 10 9 8 7 7 7 6 4 3 5 7 8 8 8 9 9 9 9 11 12 11 11 9 9 11 11 11 11 10 10 8 10 10 11 11 9 9 9 10 9 7 9 10 6 6 8 8 8
26 22 21 20 20 21 21 20 20 19 19 17 14 13 12 12 11 10 8 7 6 4 4 5 7 8 8 9 9 9 9 9 11 12 12 11 9 10 12 11 12 11 11 12 11 10 11 13 12 10 8 9 8 8 8 10 9 7 8 8 9 10
28 24 23 23 22 22 22 22 21 19 17 16 16 16 16 14 13 11 8 7 6 5 7 8 8 9 9 9 9 9 9 9 11 11 12 11 9 10 13 13 13 14 13 12 11 12 14 12 10 10 10 8 7 6 8 10 10 10 9 8 8 11
29 26 25 24 24 23 21 19 18 17 17 18 18 15 12 11 11 11 9 7 7 6 8 9 9 9 9 9 8 9 9 9 9 10 12 12 9 11 13 13 14 15 15 14 12 13 14 10 9 12 10 5 2 3 5 6 9 10 9 8 8 9
32 30 28 26 24 22 19 17 18 20 21 20 17 13 12 14 13 13 11 9 8 7 7 7 8 8 8 8 7 8 10 10 8 9 12 11 10 11 12 13 14 15 16 16 13 12 12 10 12 12 7 2 2 3 2 2 6 10 8 8 6 7
34 33 32 28 24 22 22 23 24 25 24 22 19 17 18 18 16 13 13 12 11 9 9 8 8 7 7 7 8 8 10 10 8 9 11 10 10 11 11 12 13 14 15 16 15 14 13 11 12 11 5 4 3 2 2 4 5 8 7 7 7 9
34 34 32 30 28 27 28 28 27 26 25 23 20 18 20 21 18 16 15 14 12 11 11 11 10 10 9 8 8 8 9 9 7 7 9 10 10 11 11 11 11 12 13 14 15 16 15 13 13 11 6 6 4 3 6 7 5 5 8 12 15 15
35 33 32 31 30 29 29 27 26 26 26 25 21 18 19 20 19 18 16 15 14 12 11 11 10 12 12 11 10 8 7 5 5 6 7 9 11 11 11 11 9 10 11 12 14 15 16 14 14 11 6 5 5 7 11 8 4 4 5 10 15 19
34 34 33 31 29 28 27 27 27 26 26 25 23 22 22 21 19 15 14 15 15 14 12 10 10 11 11 10 9 8 6 4 2 4 6 8 10 11 11 11 10 9 9 11 11 13 15 15 14 11 8 7 6 9 14 9 8 10 5 3 7 14
35 35 33 31 30 28 27 28 28 28 27 26 24 24 23 21 18 15 15 17 16 15 13 11 10 11 10 8 8 8 8 7 4 3 7 7 8 9 10 11 11 8 8 9 10 11 13 14 12 11 11 10 10 12 13 10 12 13 8 5 3 4
38 37 35 33 32 29 28 30 31 30 29 27 25 24 23 21 18 17 17 16 15 14 13 11 10 11 11 10 10 9 8 9 9 6 9 9 9 9 10 10 10 9 8 9 10 10 11 12 10 11 13 13 14 14 12 10 11 11 8 7 5 4
37 36 34 33 31 31 31 31 31 31 30 29 27 25 24 22 19 18 18 16 14 15 14 12 12 11 10 10 10 9 8 9 12 11 10 11 10 10 11 11 10 10 10 9 10 10 11 11 10 11 15 16 17 17 14 13 16 13 10 9 7 6
32 32 32 31 32 33 32 31 31 31 31 31 29 27 26 24 22 21 20 19 18 17 14 12 11 11 10 10 11 10 10 11 12 11 10 11 11 11 12 13 12 13 12 10 10 11 11 12 12 14 16 16 16 16 15 16 19 16 15 18 15 9
29 29 29 30 32 32 31 31 32 32 32 31 28 26 26 26 24 22 21 21 19 17 16 13 11 11 11 11 11 11 11 12 13 11 11 11 12 12 13 14 15 15 14 13 13 13 12 12 12 13 14 14 13 13 12 12 16 16 18 23 20 13
27 26 27 28 31 31 30 31 32 31 30 29 28 27 27 26 24 22 21 20 18 18 19 17 13 12 12 12 12 12 11 11 12 11 10 11 11 12 14 14 15 15 14 14 14 15 13 12 11 11 11 11 10 10 9 7 11 15 18 22 22 17
26 25 25 27 29 30 29 30 30 29 27 27 27 26 25 24 23 21 20 19 19 19 20 19 16 15 15 14 14 14 12 13 14 13 12 14 14 15 15 15 16 16 15 15 16 16 15 15 14 13 13 13 13 13 13 11 9 13 18 23 25 24
24 24 24 26 27 27 27 28 28 27 26 26 26 24 23 23 21 20 19 20 21 21 21 20 17 16 15 15 14 14 14 14 14 13 15 16 16 17 17 17 17 17 16 16 17 17 17 17 17 16 16 16 16 16 15 17 17 13 18 25 25 25
22 22 23 24 24 24 24 26 26 25 24 24 24 23 22 22 20 19 19 20 22 21 21 19 17 15 14 14 15 15 15 13 13 14 16 17 16 16 17 17 17 16 16 16 17 18 16 16 16 15 15 16 16 16 15 17 20 20 18 20 18 16
Wind_Direction
156 155 156 155 152 151 151 151 147 144 141 138 139 144 147 144 143 141 141 139 135 133 129 127 123 117 116 115 113 111 110 106 100 91 83 82 77 74 72 71 64 56 132 153 146 121 113 129 137 136 125 99 74 74 115 133 124 115 103 102 102 103
155 155 157 156 154 152 153 151 145 142 139 141 147 153 151 146 147 149 149 144 138 136 132 128 119 114 115 115 111 108 108 101 94 85 77 77 76 70 63 64 65 58 106 147 143 124 117 123 134 141 128 101 71 83 127 130 117 113 106 107 106 111
154 158 159 157 155 154 155 150 144 142 140 147 157 159 151 150 155 155 152 145 138 138 132 120 113 117 119 117 113 113 112 105 97 85 77 73 75 72 61 61 64 65 104 134 136 126 117 116 129 143 131 103 55 84 129 122 115 114 109 111 111 120
155 159 159 157 156 155 154 148 144 144 145 155 164 159 154 157 161 157 151 147 144 143 132 121 122 127 126 125 124 123 119 111 101 85 82 73 79 78 67 64 58 66 102 126 133 121 96 87 158 172 151 123 72 105 135 122 118 118 115 117 121 128
158 159 159 159 157 155 152 146 147 148 151 164 167 159 158 163 163 157 155 153 150 147 140 135 140 142 142 145 141 135 130 123 110 96 87 59 61 64 70 74 63 73 96 114 117 38 347 299 246 196 170 148 114 121 137 128 120 117 116 120 127 131
161 160 160 159 155 152 148 146 151 151 158 170 168 159 162 168 164 159 161 161 152 150 151 151 153 156 157 160 154 141 139 139 127 123 117 64 33 31 66 82 76 97 94 114 329 338 321 267 221 189 176 164 140 127 130 129 122 117 121 126 131 129
162 161 159 157 154 150 147 151 156 155 164 175 169 161 164 168 169 166 167 168 162 161 164 164 164 166 166 162 158 147 155 166 152 162 187 168 232 346 33 27 328 223 320 298 328 354 337 208 191 168 173 167 141 127 131 131 121 121 128 131 134 132
164 162 157 156 157 155 154 157 160 161 169 176 169 165 165 164 171 175 174 175 175 175 174 173 172 171 167 160 164 170 184 191 172 190 228 246 256 300 351 350 320 292 297 308 5 29 129 176 174 148 160 176 149 136 138 131 118 120 129 133 137 136
166 162 158 161 162 159 159 161 164 166 171 175 171 172 175 169 169 173 171 176 178 181 182 177 173 170 165 165 177 188 189 190 190 209 228 245 267 284 300 337 337 319 300 15 33 54 134 150 148 139 145 160 165 155 145 133 121 118 126 134 138 138
167 162 163 165 164 164 163 164 168 169 170 177 178 179 181 173 165 164 166 172 174 180 184 179 179 178 176 180 190 197 180 158 161 212 224 212 223 300 292 352 8 60 65 41 40 67 126 133 135 146 148 153 169 158 146 141 127 117 122 129 136 140
169 165 166 164 165 170 168 165 169 169 171 179 182 181 180 173 167 166 171 174 169 173 181 189 205 202 194 198 204 208 183 146 140 207 265 232 213 74 89 45 62 84 64 55 61 82 125 128 133 149 144 144 164 154 147 154 138 118 117 120 126 136
170 171 171 167 168 172 169 166 170 172 172 176 178 180 182 180 176 175 179 176 169 172 177 194 213 214 214 209 206 210 189 148 139 187 258 236 217 114 103 84 93 83 67 109 106 105 142 130 125 129 118 130 157 158 156 164 149 125 118 119 123 127
169 173 170 169 172 170 168 169 172 173 169 169 174 180 184 185 184 178 180 176 175 179 174 190 206 209 220 217 209 210 194 157 145 169 208 207 186 127 115 106 114 100 97 138 125 112 133 130 120 117 119 140 153 150 159 165 152 133 125 127 127 123
170 171 168 168 170 167 167 168 171 170 167 167 171 179 184 186 182 176 183 186 185 186 180 194 208 211 219 225 221 213 185 158 153 179 213 215 191 137 129 125 127 132 125 128 126 120 124 124 119 110 118 140 152 151 156 158 149 139 140 142 135 129
168 168 168 165 164 164 167 167 168 168 168 170 172 178 183 179 176 177 191 199 191 193 195 200 212 217 222 228 229 221 188 161 159 183 205 213 186 145 138 138 129 137 142 120 118 127 119 116 120 116 117 129 145 152 146 140 141 143 153 156 146 141
164 164 166 166 164 165 168 169 170 171 173 175 174 178 183 179 179 181 190 198 193 195 200 203 208 214 230 238 234 224 199 174 171 178 172 176 181 155 142 144 135 136 150 128 115 122 119 116 118 117 117 120 129 135 124 115 123 136 156 160 158 155
153 158 162 167 169 169 170 173 176 174 172 172 171 180 190 187 187 187 185 192 195 194 197 202 204 208 225 237 234 221 203 191 186 178 167 169 181 165 148 147 143 142 151 141 129 131 129 124 118 113 115 118 119 114 103 100 105 120 147 154 159 169
144 152 160 167 172 173 171 172 170 164 163 164 168 181 189 178 173 175 178 186 189 188 190 196 204 208 210 215 221 217 205 197 192 184 172 170 180 166 152 156 156 147 148 154 148 144 140 129 121 118 116 115 116 109 96 98 104 111 128 128 146 168
149 156 163 169 173 172 169 164 158 153 160 164 162 166 164 158 154 143 149 166 168 174 186 188 195 205 211 215 217 212 207 203 195 189 176 168 176 166 154 161 169 158 149 155 148 138 139 132 124 122 119 114 113 109 98 102 107 117 127 106 114 148
158 164 166 170 170 168 163 159 158 155 158 162 158 153 150 152 151 134 130 146 156 163 178 180 187 201 215 222 219 210 208 210 197 189 179 170 171 167 159 161 167 163 156 155 141 129 138 139 128 116 110 114 114 107 97 105 108 115 117 94 91 116
158 163 165 165 164 163 162 163 165 161 157 159 159 151 143 142 141 135 130 138 154 171 159 166 185 195 206 214 218 211 203 204 195 186 178 174 177 171 164 164 162 154 154 158 145 134 142 140 128 117 107 108 113 111 105 112 120 121 113 105 102 109
149 157 161 161 160 161 165 166 164 160 155 152 147 142 137 136 134 129 130 127 127 152 153 158 174 182 193 202 211 207 194 194 193 190 183 179 188 178 165 170 168 153 150 159 151 143 147 143 135 132 123 105 96 101 105 117 132 140 135 135 126 115
145 151 155 159 162 163 166 163 153 150 150 143 135 135 130 126 124 117 122 120 104 121 144 157 166 171 181 189 204 203 191 192 191 187 183 180 187 180 170 175 177 165 158 157 153 154 157 151 143 137 126 112 108 95 86 105 124 133 144 154 147 135
147 150 153 156 160 158 156 146 133 134 140 136 130 134 127 118 117 113 115 117 103 103 125 152 164 168 175 177 190 194 182 185 186 177 176 180 185 180 176 179 180 177 169 160 154 165 173 163 152 147 127 106 133 108 90 127 118 109 127 153 153 157
147 150 151 152 151 147 142 135 128 127 129 129 129 137 137 131 129 124 125 128 116 106 113 130 141 148 162 166 170 180 178 179 181 176 177 182 184 182 184 184 181 181 180 172 164 167 177 174 165 161 149 132 121 95 177 180 128 94 103 123 112 130
149 152 153 152 150 145 141 137 135 131 130 133 137 144 145 143 141 132 130 134 126 115 114 112 112 117 127 139 148 159 171 180 183 181 185 188 184 185 191 190 188 191 188 182 173 166 170 178 177 173 156 138 118 113 158 158 126 89 86 89 88 105
153 155 157 158 154 147 141 141 143 141 139 142 146 147 145 142 141 135 133 135 132 129 124 114 111 115 114 115 122 126 131 144 163 176 189 193 187 187 191 190 190 195 189 184 182 173 168 169 174 180 169 134 101 119 151 155 135 131 95 78 82 93
153 154 158 160 157 153 148 147 148 148 147 145 141 140 139 137 136 138 141 140 139 137 132 128 125 120 115 112 112 112 110 99 120 185 189 185 185 185 188 190 189 193 189 184 186 177 169 167 167 174 166 137 111 131 155 158 133 130 120 84 86 88
153 155 158 159 160 163 163 157 152 150 148 143 138 137 138 138 135 137 140 138 136 133 130 133 134 125 122 122 118 117 116 98 84 192 195 179 178 179 183 190 188 186 183 172 171 168 164 165 168 169 161 137 120 133 145 135 121 124 124 124 120 98
157 158 161 164 167 171 171 163 155 153 148 144 142 141 141 142 138 135 134 132 131 132 129 130 133 132 127 124 123 125 127 109 97 132 178 177 175 173 178 186 181 175 174 160 156 161 159 159 164 166 162 147 136 141 138 129 138 143 135 125 120 132
162 163 163 167 170 169 165 159 155 155 152 150 149 148 147 149 147 143 139 136 138 141 139 128 122 126 131 129 121 120 126 120 108 114 139 158 164 164 169 177 177 174 175 165 157 161 159 160 164 160 160 159 159 161 156 158 172 164 140 134 127 130
162 161 161 164 165 164 161 157 156 156 155 155 154 153 153 153 152 150 147 146 147 148 148 140 126 118 121 130 125 116 117 119 118 116 121 138 146 147 155 162 164 166 166 161 157 157 154 155 160 159 163 168 171 174 170 170 176 168 151 150 145 146
162 161 162 163 163 162 159 156 156 157 157 156 155 154 156 157 154 151 151 151 152 151 150 151 145 130 123 129 130 129 127 121 119 119 120 131 138 140 145 148 151 155 155 150 146 146 141 139 145 150 156 166 171 176 178 180 183 174 159 155 151 149
163 166 165 163 163 160 157 156 156 156 156 156 156 157 159 159 155 153 155 155 155 154 151 147 144 143 141 137 130 128 131 127 121 122 127 131 138 146 147 146 148 150 150 149 145 140 135 130 135 139 143 152 158 158 153 160 188 186 166 159 158 155
162 166 166 163 163 161 157 157 156 154 156 158 157 158 159 157 154 153 155 156 156 154 150 143 139 143 143 139 133 124 124 128 123 120 124 123 124 134 139 139 142 141 140 143 140 134 129 127 129 128 126 129 125 118 106 100 140 183 178 167 163 158
163 165 165 165 165 163 159 157 158 156 157 158 158 157 155 154 152 151 154 155 155 152 149 145 143 143 142 142 141 132 128 132 129 124 127 125 121 126 130 131 134 133 132 135 132 126 122 122 125 122 118 120 114 106 95 91 103 134 165 168 168 166
163 163 163 167 169 166 161 158 159 159 157 158 159 157 151 150 149 148 151 154 152 150 149 148 147 146 146 146 145 141 137 135 135 132 130 131 130 131 135 135 135 134 134 136 132 125 120 119 123 125 120 116 113 107 98 94 95 97 118 137 139 148